• Em Portugal
  • Lista de países
  • Para 7 dias
  • Temperatura da água
  • Mapas de satélite
  • Mapa do tempo
  • Widgets de tempo
  • user-avatar
    Iniciar Sessão

    Previsão horária em Ushakova

    Hoje, 24 Setembro, Segunda-feira

    Tempo Temperatura Precipitação Vento Pressão Humidade
    00:00 +7°C° 0 mm 3 m/s 740 mmHg 89%
    01:00 +7°C° 0 mm 3 m/s 740 mmHg 90%
    02:00 +6°C° 0 mm 2 m/s 740 mmHg 93%
    03:00 +7°C° 0 mm 3 m/s 740 mmHg 91%
    04:00 +7°C° 0 mm 3 m/s 740 mmHg 90%
    05:00 +7°C° 0 mm 3 m/s 740 mmHg 88%
    06:00 +8°C° 0 mm 3 m/s 739 mmHg 84%
    07:00 +8°C° 0 mm 4 m/s 739 mmHg 80%
    08:00 +9°C° 0 mm 5 m/s 739 mmHg 76%
    09:00 +9°C° 0.4 mm 5 m/s 738 mmHg 77%
    10:00 +9°C° 0.4 mm 6 m/s 738 mmHg 78%
    11:00 +9°C° 0.4 mm 7 m/s 737 mmHg 79%
    12:00 +9°C° 1.1 mm 7 m/s 736 mmHg 81%
    13:00 +9°C° 1.1 mm 8 m/s 735 mmHg 83%
    14:00 +8°C° 1.1 mm 9 m/s 734 mmHg 85%
    15:00 +8°C° 1 mm 9 m/s 733 mmHg 86%
    16:00 +8°C° 1 mm 9 m/s 732 mmHg 87%
    17:00 +10°C° 1 mm 9 m/s 731 mmHg 87%
    18:00 +10°C° 0.2 mm 8 m/s 730 mmHg 87%
    19:00 +10°C° 0.2 mm 8 m/s 730 mmHg 87%
    20:00 +10°C° 0.2 mm 8 m/s 730 mmHg 86%
    21:00 +9°C° 0 mm 7 m/s 730 mmHg 86%
    22:00 +8°C° 0 mm 7 m/s 730 mmHg 85%
    23:00 +8°C° 0 mm 7 m/s 730 mmHg 85%

    Amanhã, 25 Setembro, Terça-feira

    Tempo Temperatura Precipitação Vento Pressão Humidade
    00:00 +6°C° 0 mm 7 m/s 731 mmHg 85%
    01:00 +7°C° 0 mm 6 m/s 731 mmHg 85%
    02:00 +7°C° 0 mm 6 m/s 732 mmHg 85%
    03:00 +7°C° 0 mm 6 m/s 732 mmHg 85%
    04:00 +7°C° 0 mm 6 m/s 732 mmHg 85%
    05:00 +7°C° 0 mm 6 m/s 732 mmHg 85%
    06:00 +7°C° 0 mm 6 m/s 733 mmHg 83%
    07:00 +7°C° 0 mm 6 m/s 733 mmHg 82%
    08:00 +6°C° 0 mm 7 m/s 734 mmHg 81%
    09:00 +6°C° 0.1 mm 7 m/s 735 mmHg 79%
    10:00 +6°C° 0.1 mm 7 m/s 735 mmHg 77%
    11:00 +6°C° 0.1 mm 7 m/s 736 mmHg 76%
    12:00 +6°C° 0.1 mm 7 m/s 736 mmHg 75%
    13:00 +6°C° 0.1 mm 7 m/s 737 mmHg 75%
    14:00 +6°C° 0.1 mm 7 m/s 738 mmHg 75%
    15:00 +7°C° 0 mm 6 m/s 738 mmHg 75%
    16:00 +7°C° 0 mm 6 m/s 739 mmHg 75%
    17:00 +5°C° 0 mm 6 m/s 740 mmHg 75%
    18:00 +6°C° 0 mm 5 m/s 740 mmHg 75%
    19:00 +6°C° 0 mm 5 m/s 741 mmHg 75%
    20:00 +6°C° 0 mm 5 m/s 741 mmHg 75%
    21:00 +5°C° 0 mm 5 m/s 742 mmHg 76%
    22:00 +5°C° 0 mm 4 m/s 742 mmHg 77%
    23:00 +4°C° 0 mm 4 m/s 743 mmHg 78%

    Depois de amanhã, 26 Setembro, Quarta-feira

    Tempo Temperatura Precipitação Vento Pressão Humidade
    00:00 +4°C° 0 mm 4 m/s 743 mmHg 79%
    01:00 +3°C° 0 mm 4 m/s 744 mmHg 80%
    02:00 +3°C° 0 mm 4 m/s 745 mmHg 81%
    03:00 +3°C° 0 mm 4 m/s 745 mmHg 82%
    04:00 +1°C° 0 mm 4 m/s 746 mmHg 84%
    05:00 +1°C° 0 mm 4 m/s 747 mmHg 85%
    06:00 +1°C° 0 mm 4 m/s 747 mmHg 79%
    07:00 +2°C° 0 mm 5 m/s 748 mmHg 74%
    08:00 +3°C° 0 mm 5 m/s 748 mmHg 68%
    09:00 +5°C° 0 mm 5 m/s 749 mmHg 62%
    10:00 +6°C° 0 mm 5 m/s 749 mmHg 56%
    11:00 +7°C° 0 mm 5 m/s 749 mmHg 51%
    12:00 +8°C° 0 mm 5 m/s 749 mmHg 49%
    13:00 +8°C° 0 mm 5 m/s 749 mmHg 48%
    14:00 +8°C° 0 mm 4 m/s 749 mmHg 46%
    15:00 +8°C° 0 mm 4 m/s 749 mmHg 51%
    16:00 +8°C° 0 mm 3 m/s 749 mmHg 56%
    17:00 +7°C° 0 mm 3 m/s 748 mmHg 62%
    18:00 +5°C° 0 mm 3 m/s 748 mmHg 65%
    19:00 +5°C° 0 mm 3 m/s 748 mmHg 68%
    20:00 +4°C° 0 mm 4 m/s 748 mmHg 72%
    21:00 +5°C° 0 mm 4 m/s 747 mmHg 71%
    22:00 +5°C° 0 mm 5 m/s 747 mmHg 70%
    23:00 +5°C° 0 mm 5 m/s 746 mmHg 70%

    27 Setembro, Quinta-feira

    Tempo Temperatura Precipitação Vento Pressão Humidade
    00:00 +4°C° 0.2 mm 6 m/s 745 mmHg 71%
    01:00 +4°C° 0.2 mm 6 m/s 744 mmHg 73%
    02:00 +4°C° 0.2 mm 7 m/s 743 mmHg 74%
    03:00 +4°C° 0.7 mm 8 m/s 742 mmHg 77%
    04:00 +4°C° 0.7 mm 8 m/s 742 mmHg 80%
    05:00 +3°C° 0.7 mm 9 m/s 741 mmHg 83%
    06:00 +3°C° 1 mm 9 m/s 740 mmHg 84%
    07:00 +4°C° 1 mm 8 m/s 740 mmHg 86%
    08:00 +5°C° 1 mm 8 m/s 739 mmHg 87%
    09:00 +5°C° 0.5 mm 8 m/s 739 mmHg 87%
    10:00 +6°C° 0.5 mm 7 m/s 739 mmHg 88%
    11:00 +6°C° 0.5 mm 7 m/s 739 mmHg 88%
    12:00 +6°C° 0.3 mm 7 m/s 739 mmHg 87%
    13:00 +8°C° 0.3 mm 6 m/s 739 mmHg 86%
    14:00 +8°C° 0.3 mm 6 m/s 739 mmHg 86%
    15:00 +8°C° 0.1 mm 6 m/s 738 mmHg 87%
    16:00 +8°C° 0.1 mm 5 m/s 738 mmHg 88%
    17:00 +8°C° 0.1 mm 5 m/s 738 mmHg 90%
    18:00 +8°C° 0.2 mm 5 m/s 739 mmHg 90%
    19:00 +8°C° 0.2 mm 5 m/s 739 mmHg 90%
    20:00 +9°C° 0.2 mm 5 m/s 739 mmHg 90%
    21:00 +8°C° 0.1 mm 5 m/s 739 mmHg 91%
    22:00 +8°C° 0.1 mm 4 m/s 739 mmHg 92%
    23:00 +7°C° 0.1 mm 4 m/s 740 mmHg 93%

    28 Setembro, Sexta-feira

    Tempo Temperatura Precipitação Vento Pressão Humidade
    00:00 +7°C° 0 mm 4 m/s 740 mmHg 94%
    01:00 +6°C° 0 mm 4 m/s 740 mmHg 94%
    02:00 +7°C° 0 mm 3 m/s 741 mmHg 95%
    03:00 +7°C° 0 mm 3 m/s 741 mmHg 95%
    04:00 +7°C° 0 mm 3 m/s 741 mmHg 96%
    05:00 +7°C° 0 mm 3 m/s 741 mmHg 96%
    06:00 +8°C° 0 mm 3 m/s 741 mmHg 92%
    07:00 +8°C° 0 mm 4 m/s 740 mmHg 89%
    08:00 +10°C° 0 mm 4 m/s 740 mmHg 86%
    09:00 +10°C° 0 mm 6 m/s 740 mmHg 85%
    10:00 +11°C° 0 mm 7 m/s 739 mmHg 84%
    11:00 +12°C° 0 mm 8 m/s 739 mmHg 83%
    12:00 +12°C° 0 mm 8 m/s 738 mmHg 83%
    13:00 +12°C° 0 mm 8 m/s 738 mmHg 83%
    14:00 +12°C° 0 mm 8 m/s 737 mmHg 84%
    15:00 +12°C° 0.1 mm 8 m/s 737 mmHg 84%
    16:00 +12°C° 0.1 mm 7 m/s 737 mmHg 85%
    17:00 +12°C° 0.1 mm 7 m/s 736 mmHg 85%
    18:00 +12°C° 0.2 mm 7 m/s 736 mmHg 86%
    19:00 +12°C° 0.2 mm 7 m/s 736 mmHg 87%
    20:00 +12°C° 0.2 mm 7 m/s 736 mmHg 88%
    21:00 +13°C° 0.1 mm 6 m/s 736 mmHg 89%
    22:00 +13°C° 0.1 mm 6 m/s 736 mmHg 89%
    23:00 +12°C° 0.1 mm 5 m/s 736 mmHg 89%

    29 Setembro, Sábado

    Tempo Temperatura Precipitação Vento Pressão Humidade
    00:00 +12°C° 0.1 mm 5 m/s 736 mmHg 89%
    01:00 +11°C° 0.1 mm 4 m/s 737 mmHg 90%
    02:00 +10°C° 0.1 mm 4 m/s 737 mmHg 91%
    03:00 +8°C° 0.1 mm 4 m/s 738 mmHg 91%
    04:00 +7°C° 0.1 mm 4 m/s 738 mmHg 90%
    05:00 +8°C° 0.1 mm 3 m/s 739 mmHg 90%
    06:00 +6°C° 0 mm 4 m/s 739 mmHg 88%
    07:00 +6°C° 0 mm 4 m/s 740 mmHg 85%
    08:00 +6°C° 0 mm 4 m/s 741 mmHg 82%
    09:00 +7°C° 0 mm 4 m/s 741 mmHg 77%
    10:00 +7°C° 0 mm 4 m/s 742 mmHg 71%
    11:00 +8°C° 0 mm 4 m/s 743 mmHg 66%
    12:00 +8°C° 0 mm 4 m/s 743 mmHg 63%
    13:00 +10°C° 0 mm 4 m/s 743 mmHg 59%
    14:00 +10°C° 0 mm 4 m/s 744 mmHg 56%
    15:00 +8°C° 0 mm 4 m/s 744 mmHg 58%
    16:00 +9°C° 0 mm 3 m/s 744 mmHg 61%
    17:00 +8°C° 0 mm 3 m/s 745 mmHg 63%
    18:00 +7°C° 0 mm 3 m/s 745 mmHg 64%
    19:00 +5°C° 0 mm 3 m/s 746 mmHg 66%
    20:00 +4°C° 0 mm 3 m/s 747 mmHg 67%
    21:00 +3°C° 0 mm 3 m/s 747 mmHg 69%
    22:00 +4°C° 0 mm 2 m/s 748 mmHg 71%
    23:00 +3°C° 0 mm 2 m/s 748 mmHg 73%
    Mostrar mais